Tracking 19572 objects as of 24-Feb-2019
HD Live streaming from Space Station
objects crossing your sky now

INTELSAT 1-F1

Track INTELSAT 1-F1 now!
INTELSAT 1-F1 is classified as:


NORAD ID: 1317
Int'l Code: 1965-028A
Perigee: 35,782.4 km
Apogee: 35,788.2 km
Inclination: 0.9 °
Period: 1,435.7 minutes
Semi major axis: 42156 km
RCS: 0.8912 m2 (medium)
Launch date: April 6, 1965
Source: International Telecommunications Satellite Organization (ITSO)
Launch site: AIR FORCE EASTERN TEST RANGE (AFETR)
aabbcc
Your satellite tracking list
Your tracking list is empty




NASA's NSSDC Master Catalog

Two Line Element Set (TLE):
1  1317U 65028A   19054.15417883 -.00000307  00000-0  00000+0 0  9999
2  1317   0.9375  60.7820 0000682 129.1130 326.6084  1.00301938100403
Source of the keplerian elements: AFSPC